Weather History for Tucson Davis Monthan, AZ

Change the Weather History Date:

Friday, March 8, 2013

  Actual Average Record
Temperature  
Mean Temperature 56 °F -  
Max Temperature 65 °F 73 °F 90 °F (1989)
Min Temperature 45 °F 44 °F 32 °F (2012)
Degree Days  
Heating Degree Days 10    
Growing Degree Days 6 (Base 50)    
Moisture  
Dew Point 37 °F    
Average Humidity 46    
Maximum Humidity 59    
Minimum Humidity 31    
Precipitation  
Precipitation 0.01 in - - ()
Sea Level Pressure  
Sea Level Pressure 29.83 in    
Wind  
Wind Speed 13 mph (SSW)    
Max Wind Speed 30 mph    
Max Gust Speed 44 mph    
Visibility 10 miles    
Events Rain    
Averages and records for this station are not official NWS values.
T = Trace of Precipitation, MM = Missing Value Source: NWS Daily Summary

Daily Weather History Graph

Daily Weather History Graph

Search for Another Location

Airport:

Trip Planner

Search our weather history database for the weather conditions in past years. The results will help you decide how hot, cold, wet, or windy it might be!

Date:

Astronomy

Mar. 08, 2013 Rise Set
Actual Time 6:42 AM MST 6:26 PM MST
Civil Twilight 6:17 AM MST 6:51 PM MST
Nautical Twilight 5:49 AM MST 7:19 PM MST
Astronomical Twilight 5:20 AM MST 7:48 PM MST
Moon 4:19 AM MST (3/8) 3:33 PM MST (3/8)
Length of Visible Light 12h 33m
Length of Day
11h 44m
Waning Crescent, 11% of the Moon is Illuminated
Mar 8
Waning Crescent
Mar 11
New
Mar 19
First Quarter
Mar 27
Full
Apr 2
Last Quarter

Hourly Weather History & Observations

Time (MST) Temp. Windchill Dew Point Humidity Pressure Visibility Wind Dir Wind Speed Gust Speed Precip Events Conditions
12:58 AM 59.9 °F - 28.8 °F 31% 29.83 in 10.0 mi SSE 3.5 mph - N/A   Overcast
1:58 AM 58.5 °F - 30.9 °F 35% 29.83 in 10.0 mi SSE 4.6 mph - N/A   Overcast
2:58 AM 57.7 °F - 30.2 °F 35% 29.81 in 10.0 mi SSE 4.6 mph - N/A   Mostly Cloudy
3:40 AM 59.0 °F - 32.0 °F 36% 29.89 in 10.0 mi SSW 4.6 mph - N/A Rain Light Rain
3:51 AM 59.0 °F - 32.0 °F 36% 29.87 in 10.0 mi SE 5.8 mph - N/A   Mostly Cloudy
3:58 AM 58.5 °F - 32.7 °F 38% 29.78 in 10.0 mi SSE 5.8 mph - 0.00 in   Mostly Cloudy
4:58 AM 56.7 °F - 32.5 °F 40% 29.78 in 10.0 mi SSE 2.3 mph - N/A   Mostly Cloudy
5:58 AM 61.2 °F - 35.2 °F 38% 29.79 in 10.0 mi SSW 12.7 mph 19.6 mph N/A   Mostly Cloudy
6:58 AM 60.8 °F - 36.5 °F 40% 29.80 in 10.0 mi South 9.2 mph - N/A   Scattered Clouds
7:58 AM 57.7 °F - 40.8 °F 53% 29.83 in 10.0 mi South 13.8 mph - N/A   Partly Cloudy
8:58 AM 60.6 °F - 39.7 °F 46% 29.82 in 10.0 mi SSE 16.1 mph - N/A   Clear
9:47 AM 64.4 °F - 39.2 °F 40% 29.88 in 10.0 mi SSW 18.4 mph 24.2 mph N/A   Partly Cloudy
9:58 AM 64.9 °F - 38.8 °F 38% 29.81 in 10.0 mi SSW 17.3 mph 25.3 mph N/A   Partly Cloudy
10:13 AM 62.6 °F - 39.2 °F 42% 29.89 in 10.0 mi South 20.7 mph 25.3 mph N/A Rain Light Rain
10:34 AM 59.0 °F - 44.6 °F 59% 29.88 in 10.0 mi SSW 16.1 mph - N/A   Partly Cloudy
10:58 AM 62.2 °F - 43.0 °F 49% 29.79 in 10.0 mi SSW 17.3 mph - 0.00 in   Clear
11:58 AM 63.1 °F - 41.5 °F 45% 29.79 in 10.0 mi SSW 24.2 mph 35.7 mph N/A   Clear
12:58 PM 65.1 °F - 37.6 °F 36% 29.75 in 10.0 mi SW 25.3 mph 34.5 mph N/A   Clear
1:18 PM 62.6 °F - 37.4 °F 39% 29.82 in 10.0 mi WSW 21.9 mph 33.4 mph N/A Rain Light Rain
1:37 PM 59.0 °F - 44.6 °F 59% 29.81 in 10.0 mi WSW 18.4 mph 25.3 mph N/A   Partly Cloudy
1:58 PM 62.8 °F - 41.4 °F 45% 29.73 in 10.0 mi SW 27.6 mph 33.4 mph 0.01 in   Clear
2:37 PM 64.4 °F - 35.6 °F 34% 29.80 in 10.0 mi WSW 25.3 mph 35.7 mph N/A   Partly Cloudy
2:58 PM 60.1 °F - 42.3 °F 52% 29.74 in 10.0 mi WSW 28.8 mph 40.3 mph N/A   Partly Cloudy
3:16 PM 59.0 °F - 41.0 °F 51% 29.82 in 10.0 mi WSW 29.9 mph 43.7 mph N/A Rain Light Rain
3:27 PM 57.2 °F - 39.2 °F 51% 29.84 in 10.0 mi SW 24.2 mph 39.1 mph N/A   Clear
3:37 PM 57.2 °F - 39.2 °F 51% 29.84 in 10.0 mi SW 26.5 mph 41.4 mph N/A Rain Light Rain
3:45 PM 55.4 °F - 39.2 °F 54% 29.84 in 10.0 mi SW 27.6 mph 41.4 mph N/A   Partly Cloudy
3:58 PM 56.5 °F - 38.1 °F 50% 29.78 in 10.0 mi WSW 20.7 mph 35.7 mph 0.00 in   Partly Cloudy
4:58 PM 58.5 °F - 36.7 °F 44% 29.80 in 10.0 mi SW 19.6 mph 29.9 mph N/A   Partly Cloudy
5:29 PM 55.4 °F - 35.6 °F 47% 29.86 in 10.0 mi WSW 29.9 mph 35.7 mph N/A Rain Light Rain
5:40 PM 53.6 °F - 37.4 °F 54% 29.88 in 10.0 mi SW 26.5 mph 34.5 mph N/A   Clear
5:58 PM 53.6 °F - 34.5 °F 48% 29.82 in 10.0 mi SW 18.4 mph 32.2 mph 0.00 in   Clear
6:58 PM 51.6 °F - 35.1 °F 53% 29.85 in 10.0 mi SSW 18.4 mph 26.5 mph N/A   Scattered Clouds
7:58 PM 50.5 °F - 36.9 °F 59% 29.87 in 10.0 mi SSW 12.7 mph - N/A   Clear
8:58 PM 48.9 °F - 32.9 °F 54% 29.90 in 10.0 mi WSW 12.7 mph - N/A   Mostly Cloudy
9:58 PM 48.0 °F - 33.1 °F 56% 29.92 in 10.0 mi West 11.5 mph - N/A   Scattered Clouds
10:58 PM 46.8 °F - 32.0 °F 57% 29.93 in 10.0 mi NNW 4.6 mph - N/A   Clear
11:58 PM 45.7 °F 42.0 °F 31.6 °F 58% 29.94 in 10.0 mi SW 6.9 mph - N/A   Clear